[[{"header":{"parameterUnit":"m.s-1","parameterCategory":2,"la1":30.2991,"la2":30.254,"lo1":-89.0895,"lo2":-89.0444,"dy":0.0017,"dx":0.0017,"nx":28,"ny":28,"refTime":"2024-05-03T21:00:00:Z","depth":"0","parameterNumber":2,"parameterNumberName":"U-component_of_CURRENTS"},"data":[0,0,0,0,0,0,0,0,0,0,0,0,0,0,0,0,0,0,0,0,0,0,0,0,0,0,0,0,0,0,0,0,0,0,0,0,0,0,0,0,0,0,0,0,0,0,0,0,0,0,0,0,0,0,0,0,0,0,0.2339,0.234,0,0.238,0.238,0.2381,0.2364,0.2364,0.2363,0.2362,0.2389,0.239,0.2392,0,0,0,0,0,0,0,0,0,0,0,0,0,0.228,0.228,0.2339,0.234,0.234,0.238,0.238,0.2381,0.2364,0.2364,0.2363,0.2362,0.2389,0.239,0.2392,0,0,0,0,0,0,0,0,0,0,0,0,0,0.2309,0.228,0.2339,0.2339,0.234,0.238,0.238,0.2381,0.2365,0.2364,0.2363,0.2362,0.2388,0.239,0.2392,0.2425,0,0,0.2398,0.2399,0,0,0,0,0,0,0,0,0.2307,0.231,0.2338,0.2339,0.234,0.2369,0.2369,0.2396,0.2365,0.2352,0.2362,0.2361,0.2384,0.2386,0.2392,0.2427,0.2428,0.2398,0.24,0.2401,0.2401,0,0,0,0,0,0,0,0.2305,0.2309,0.2352,0.2339,0.2341,0.2349,0.2352,0.2374,0.2371,0.2353,0.2353,0.2363,0.2383,0.239,0.2393,0.2428,0.2398,0.24,0.2401,0.2402,0.2507,0.2508,0,0,0,0,0,0,0.2305,0.2307,0.2351,0.2354,0.2324,0.2351,0.2354,0.2358,0.2371,0.2373,0.2363,0.2362,0.2387,0.239,0.2393,0.2457,0.2401,0.2402,0.2404,0.2505,0.2507,0.2509,0,0,0,0,0,0,0.2304,0.2309,0.2349,0.2334,0.234,0.2353,0.2359,0.236,0.2369,0.2379,0.238,0.2372,0.2386,0.2391,0.2422,0.2456,0.2403,0.2405,0.2504,0.2506,0.2508,0.2568,0,0,0,0,0,0,0.2302,0.2308,0.2315,0.2334,0.2341,0.2384,0.236,0.2361,0.2378,0.2376,0.2387,0.2388,0.2386,0.2419,0.2424,0.2458,0.2407,0.2502,0.2505,0.2507,0.2564,0.2572,0.2579,0,0,0,0,0,0.2299,0.2326,0.2315,0.2321,0.2349,0.2385,0.239,0.2394,0.238,0.2395,0.2399,0.2388,0.244,0.2422,0.2427,0.2463,0.25,0.2504,0.2507,0.2561,0.2571,0.2579,0,0,0,0,0,0,0.232,0.2328,0.2316,0.2346,0.2365,0.2384,0.2409,0.2401,0.2417,0.2416,0.2409,0.2412,0.2453,0.2451,0.243,0.2502,0.2469,0.2474,0.2508,0.2517,0.2525,0.2574,0.2409,0,0,0,0,0,0.2324,0.2341,0.2348,0.2379,0.2386,0.2394,0.241,0.2411,0.2427,0.2432,0.2436,0.2449,0.2474,0.2487,0.2506,0.2548,0.2577,0.2574,0.2582,0.2588,0.2633,0.2689,0.2707,0.2521,0.2521,0.252,0,0,0.2343,0.2353,0.2362,0.2384,0.2398,0.243,0.2401,0.2435,0.2467,0.2435,0.2479,0.2477,0.249,0.2535,0.2553,0.2537,0.2656,0.2593,0.2598,0.264,0.2695,0.2713,0.273,0.2523,0.2523,0.2522,0,0,0.2395,0.2396,0.2419,0.2438,0.2461,0.247,0.248,0.2495,0.2505,0.2539,0.253,0.2555,0.2578,0.2606,0.2621,0.2686,0.2692,0.2678,0.2761,0.2814,0.2831,0.2846,0.2904,0.2923,0.2683,0.2683,0.2683,0,0.2416,0.2446,0.2437,0.247,0.2498,0.249,0.253,0.255,0.2574,0.2595,0.2561,0.2624,0.2623,0.2704,0.2724,0.2707,0.2738,0.2721,0.2826,0.2841,0.2856,0.2912,0.2932,0.2686,0.2686,0.2686,0.2685,0,0.2474,0.2507,0.2534,0.2564,0.2591,0.2634,0.265,0.2673,0.2671,0.2687,0.2746,0.2748,0.279,0.2785,0.2778,0.2881,0.2871,0.2826,0.2805,0.2878,0.2932,0.2953,0.2691,0.269,0.2689,0.2688,0,0,0.2496,0.2559,0.2566,0.2589,0.2644,0.2663,0.273,0.278,0.2815,0.2839,0.2897,0.2943,0.2939,0.2959,0.2949,0.2999,0.311,0.2966,0.2967,0.3029,0.3245,0.3206,0.3224,0.3078,0.3082,0.3086,0.3242,0,0.2543,0.2609,0.2637,0.2711,0.2743,0.2771,0.283,0.2874,0.2897,0.2948,0.298,0.3024,0.3008,0.3016,0.3079,0.3099,0.3169,0.3074,0.3163,0.3167,0.3126,0.3248,0.3139,0.3266,0.3262,0.3265,0.3268,0,0.2575,0.2617,0.2686,0.2764,0.278,0.2824,0.2894,0.2946,0.3027,0.3046,0.3116,0.3131,0.324,0.3178,0.3324,0.3263,0.3286,0.3295,0.33,0.3267,0.3167,0.3193,0.3304,0.3213,0.3299,0.3297,0.3294,0,0.2551,0.2647,0.2697,0.2726,0.2813,0.2848,0.2895,0.297,0.3016,0.3108,0.3154,0.3265,0.3329,0.3387,0.3437,0.3385,0.3575,0.3488,0.3489,0.3485,0.3418,0.3401,0.346,0.3607,0.3607,0.3607,0.3606,0,0.2574,0.2611,0.2684,0.2708,0.2764,0.2832,0.2893,0.2949,0.3048,0.3105,0.3204,0.3276,0.3387,0.3494,0.3504,0.3592,0.364,0.3563,0.3544,0.3432,0.3417,0.3351,0.3308,0.3612,0.3611,0.361,0.3609,0,0.2523,0.2584,0.2631,0.2721,0.2747,0.2772,0.2871,0.2913,0.3028,0.311,0.3149,0.3335,0.3469,0.3573,0.3684,0.3691,0.3649,0.3751,0.3624,0.3587,0.346,0.3424,0.3383,0.328,0.3782,0.3782,0.3783,0,0.2498,0.2521,0.2598,0.2616,0.2652,0.2707,0.2745,0.2867,0.2912,0.3118,0.3152,0.3357,0.345,0.3658,0.3716,0.3792,0.3657,0.3727,0.3606,0.3499,0.3445,0.3285,0.3187,0.3542,0.354,0.3539,0.3537,0,0.2442,0.2465,0.2494,0.2533,0.2568,0.261,0.2676,0.2716,0.2859,0.296,0.3098,0.3205,0.3449,0.3517,0.3674,0.3685,0.355,0.3697,0.3624,0.3326,0.3122,0.2995,0.3396,0.3525,0.3526,0.3527,0.3527,0.3528,0.2374,0.237,0.2406,0.2432,0.2467,0.2494,0.2498,0.2585,0.266,0.2794,0.2965,0.3102,0.3311,0.3516,0.3515,0.3496,0.3453,0.3405,0.3395,0.326,0.3087,0.3473,0.3541,0.3542,0.3543,0.3544,0.3545,0,0.2286,0.2291,0.2308,0.2329,0.2322,0.2383,0.2429,0.2425,0.2462,0.2638,0.2761,0.2982,0.3088,0.3217,0.3325,0.3238,0.3059,0.3146,0.2903,0.2838,0.3234,0.3148,0.3087,0.3087,0.3088,0.3088,0.3088,0.3088,0.2238,0.2212,0.2221,0.2175,0.2187,0.2149,0.2151,0.2176,0.2262,0.2388,0.2519,0.2691,0.2965,0.3141,0.311,0.3031,0.2787,0.2673,0.2641,0.2936,0.2957,0.2978,0.2887,0.2772,0.2772,0.2111,0.2106,0.2103]},{"header":{"parameterUnit":"m.s-1","parameterCategory":2,"la1":30.2991,"la2":30.254,"lo1":-89.0895,"lo2":-89.0444,"dy":0.0017,"dx":0.0017,"nx":28,"ny":28,"refTime":"2024-05-03T21:00:00:Z","depth":"0","parameterNumber":3,"parameterNumberName":"V-component_of_CURRENTS"},"data":[0,0,0,0,0,0,0,0,0,0,0,0,0,0,0,0,0,0,0,0,0,0,0,0,0,0,0,0,0,0,0,0,0,0,0,0,0,0,0,0,0,0,0,0,0,0,0,0,0,0,0,0,0,0,0,0,0,0,0.0131,0.0131,0,0.0061,0.0061,0.006,0.0026,0.0026,0.0026,0.0026,-0.0053,-0.0055,-0.0058,0,0,0,0,0,0,0,0,0,0,0,0,0,0.0203,0.0202,0.0131,0.013,0.013,0.0062,0.006,0.0059,0.0026,0.0026,0.0026,0.0026,-0.0052,-0.0055,-0.0058,0,0,0,0,0,0,0,0,0,0,0,0,0,0.0155,0.0201,0.0131,0.0105,0.0102,0.0062,0.006,0.0059,0.0026,0.0026,0.0026,0.0026,-0.0052,-0.0055,-0.0058,-0.0081,0,0,-0.0068,-0.007,0,0,0,0,0,0,0,0,0.0158,0.0153,0.011,0.0107,0.0104,0.0053,0.0057,0.0012,0.0026,0.0054,0.0026,0.0026,-0.0018,-0.0024,-0.0039,-0.0085,-0.0088,-0.0068,-0.007,-0.0072,-0.0073,0,0,0,0,0,0,0,0.0162,0.0155,0.0103,0.0109,0.0105,0.0086,0.008,0.0048,0.0017,0.0051,0.0049,0.0043,-0.002,-0.0035,-0.0041,-0.0089,-0.0068,-0.0071,-0.0073,-0.0075,-0.0155,-0.0155,0,0,0,0,0,0,0.0173,0.0159,0.0105,0.0101,0.0133,0.0085,0.0077,0.0069,0.0018,0.001,0.0042,0.0041,-0.003,-0.0037,-0.0044,-0.0049,-0.0072,-0.0075,-0.0077,-0.0155,-0.0155,-0.0155,0,0,0,0,0,0,0.0175,0.0169,0.0108,0.0129,0.012,0.0084,0.0074,0.0067,0.0054,0.0011,0.0003,0.0036,-0.003,-0.0039,-0.0068,-0.0053,-0.0076,-0.0079,-0.0154,-0.0155,-0.0155,-0.0076,0,0,0,0,0,0,0.0177,0.017,0.017,0.013,0.0119,0.009,0.0073,0.0066,0.005,0.0047,0.0003,-0.0004,-0.0031,-0.0063,-0.0071,-0.0058,-0.0082,-0.0154,-0.0155,-0.0155,-0.0078,-0.0073,-0.0069,0,0,0,0,0,0.018,0.0188,0.0171,0.0164,0.012,0.009,0.0083,0.0057,0.005,0.0045,0.0016,-0.0003,-0.0071,-0.0066,-0.0076,-0.0063,-0.0154,-0.0154,-0.0155,-0.008,-0.0074,-0.0069,0,0,0,0,0,0,0.0234,0.0184,0.0164,0.0161,0.0127,0.0085,0.0085,0.006,0.0032,0.0036,-0.0007,-0.0017,-0.0037,-0.0067,-0.006,-0.0089,-0.0115,-0.0117,-0.0055,-0.005,-0.0045,0.0003,-0.0085,0,0,0,0,0,0.0241,0.0234,0.018,0.0184,0.0165,0.0123,0.0109,0.0089,0.0058,0.0046,0.0012,-0.0021,-0.0048,-0.0061,-0.0093,-0.011,-0.0127,-0.0109,-0.0105,-0.01,-0.007,-0.0108,-0.0103,-0.0156,-0.0156,-0.0156,0,0,0.0276,0.0241,0.0245,0.0195,0.017,0.0173,0.0116,0.0102,0.0114,0.0042,0.0046,-0.0008,-0.0051,-0.0066,-0.0077,-0.0087,-0.0094,-0.0101,-0.0096,-0.0068,-0.0108,-0.0103,-0.0098,-0.0156,-0.0156,-0.0156,0,0,0.0353,0.0297,0.0323,0.0292,0.0249,0.0213,0.021,0.016,0.0141,0.0122,0.008,0.0036,-0.0008,-0.0034,-0.0052,-0.0044,-0.0072,-0.006,0.0008,-0.003,-0.0025,-0.0021,-0.0026,-0.0023,-0.0054,-0.0054,-0.0054,0,0.0415,0.0411,0.0329,0.0342,0.0335,0.024,0.0273,0.0237,0.0188,0.0179,0.0138,0.0068,0.0015,0.0013,0.001,-0.0029,-0.0045,-0.0006,-0.0021,-0.0017,-0.0015,-0.0021,-0.0018,-0.005,-0.005,-0.0051,-0.0051,0,0.0497,0.0499,0.0509,0.0493,0.0469,0.0473,0.0409,0.0382,0.0333,0.0296,0.0259,0.0172,0.0139,0.0098,0.0057,0.0053,0.0038,-0.0013,-0.0026,-0.0004,-0.0012,-0.0011,-0.0044,-0.0046,-0.0047,-0.0048,0,0,0.0638,0.0589,0.0593,0.06,0.0544,0.0532,0.0539,0.0509,0.0516,0.0434,0.045,0.0356,0.0291,0.0266,0.0191,0.0144,0.013,0.0083,0.0079,0.0096,0.0077,0.0063,0.0062,0.0075,0.0075,0.0075,0.0068,0,0.0741,0.0787,0.0735,0.0786,0.0794,0.0713,0.0727,0.0683,0.062,0.06,0.0496,0.0466,0.0362,0.0334,0.0277,0.017,0.0135,0.0139,0.0039,0.0037,0.0035,0.0063,0.0045,0.0036,0.0069,0.0069,0.0069,0,0.0827,0.0841,0.0907,0.0902,0.0903,0.0924,0.0898,0.0899,0.0837,0.0788,0.0732,0.0645,0.0582,0.047,0.0337,0.0346,0.0233,0.0136,0.0132,0.0099,0.0025,0.0014,0.0036,-0.014,0.007,0.007,0.007,0,0.0908,0.095,0.1,0.1,0.0991,0.1016,0.1011,0.0961,0.0967,0.0908,0.0906,0.0803,0.0766,0.0612,0.0414,0.0378,0.0263,0.0184,0.0074,0.0072,0.003,0.0024,-0.0113,0.0094,0.0094,0.0094,0.0094,0,0.0995,0.1035,0.1044,0.1067,0.1134,0.1102,0.1155,0.1123,0.1115,0.1143,0.1018,0.1023,0.0794,0.0692,0.0493,0.0313,0.033,0.0114,0.0072,0.0056,0.0053,-0.0124,-0.0218,0.0094,0.0094,0.0094,0.0094,0,0.1048,0.1059,0.1113,0.1145,0.1164,0.1203,0.125,0.1278,0.1264,0.1305,0.13,0.1207,0.1064,0.0839,0.0597,0.0434,0.0137,0.016,0.0177,0.0137,-0.0135,-0.0222,-0.0367,-0.0432,0.0054,0.0054,0.0053,0,0.1073,0.1108,0.1164,0.1201,0.1221,0.1282,0.1324,0.1337,0.1377,0.1415,0.1451,0.1354,0.1287,0.0966,0.0624,0.0316,0.0124,0.0119,0.0029,-0.0125,-0.0255,-0.0321,-0.0371,0.0007,0.0006,0.0006,0.0005,0,0.1121,0.1136,0.1174,0.1257,0.1317,0.1387,0.1461,0.1526,0.1559,0.1611,0.1665,0.1633,0.1336,0.102,0.0614,0.0379,0.0004,0.0099,-0.0082,-0.0303,-0.0363,-0.0454,0.0008,0.0,0.0001,0.0001,0.0002,0.0002,0.1145,0.1178,0.123,0.1307,0.1379,0.1478,0.1547,0.1639,0.1739,0.1833,0.1816,0.1791,0.1372,0.0802,0.0495,-0.0068,-0.006,-0.0246,-0.0334,-0.0383,-0.0466,0.0014,-0.0037,-0.0037,-0.0037,-0.0036,-0.0036,0,0.1161,0.1204,0.1278,0.1367,0.1446,0.1488,0.1622,0.1695,0.182,0.1915,0.1959,0.1723,0.1207,0.0679,-0.0062,-0.0428,-0.0568,-0.0632,-0.0754,-0.0781,-0.0379,-0.0402,-0.0509,-0.0509,-0.0509,-0.0508,-0.0508,-0.0508,0.1166,0.1227,0.1269,0.14,0.1471,0.1584,0.1663,0.1781,0.1869,0.1954,0.1934,0.1896,0.1486,0.0224,-0.0659,-0.0863,-0.1094,-0.1153,-0.1251,-0.1017,-0.0988,-0.0961,-0.1007,-0.1239,-0.124,-0.162,-0.1624,-0.1627]}],[{"header":{"parameterUnit":"m.s-1","parameterCategory":2,"la1":30.2991,"la2":30.254,"lo1":-89.0895,"lo2":-89.0444,"dy":0.0017,"dx":0.0017,"nx":28,"ny":28,"refTime":"2024-05-03T21:00:00:Z","depth":"2","parameterNumber":2,"parameterNumberName":"U-component_of_CURRENTS"},"data":[0,0,0,0,0,0,0,0,0,0,0,0,0,0,0,0,0,0,0,0,0,0,0,0,0,0,0,0,0,0,0,0,0,0,0,0,0,0,0,0,0,0,0,0,0,0,0,0,0,0,0,0,0,0,0,0,0,0,0.2451,0.2452,0,0.2509,0.2509,0.2509,0.2501,0.25,0.2499,0.2499,0.2502,0.2503,0.2504,0,0,0,0,0,0,0,0,0,0,0,0,0,0.2293,0.2296,0.2451,0.2452,0.2453,0.2508,0.2509,0.2509,0.2501,0.25,0.2499,0.2498,0.2502,0.2503,0.2504,0,0,0,0,0,0,0,0,0,0,0,0,0,0.2354,0.2297,0.2451,0.2458,0.2459,0.2508,0.2509,0.251,0.2501,0.25,0.2499,0.2498,0.2502,0.2503,0.2504,0.2532,0,0,0.2507,0.2508,0,0,0,0,0,0,0,0,0.2351,0.236,0.2456,0.2457,0.2459,0.2499,0.2455,0.2515,0.2501,0.2482,0.2499,0.2497,0.2499,0.25,0.251,0.2532,0.2532,0.2507,0.2508,0.2509,0.2509,0,0,0,0,0,0,0,0.2346,0.2357,0.2471,0.2457,0.2459,0.2444,0.2451,0.2466,0.2492,0.2484,0.2484,0.2495,0.2499,0.2509,0.251,0.2532,0.2507,0.2508,0.2509,0.2509,0.2588,0.2589,0,0,0,0,0,0,0.235,0.2354,0.2469,0.2473,0.2404,0.2448,0.2456,0.2485,0.2493,0.2495,0.2496,0.2495,0.2507,0.2508,0.251,0.2537,0.2509,0.251,0.251,0.2587,0.2588,0.259,0,0,0,0,0,0,0.2346,0.236,0.2467,0.2415,0.2428,0.2452,0.2484,0.2487,0.2492,0.2504,0.2504,0.2498,0.2507,0.2508,0.2523,0.2537,0.251,0.2511,0.2585,0.2587,0.2589,0.2595,0,0,0,0,0,0,0.2342,0.2359,0.2377,0.2416,0.2431,0.2487,0.2486,0.2489,0.2502,0.2501,0.2506,0.2506,0.2506,0.2522,0.2524,0.2538,0.2512,0.2583,0.2586,0.2589,0.2593,0.2597,0.2601,0,0,0,0,0,0.2336,0.2352,0.2378,0.2391,0.2457,0.2487,0.2493,0.2503,0.2503,0.2504,0.2515,0.2505,0.2541,0.2524,0.2526,0.2541,0.2582,0.2585,0.2588,0.2591,0.2596,0.26,0,0,0,0,0,0,0.2288,0.2355,0.2383,0.2419,0.2453,0.2486,0.2483,0.2505,0.2516,0.2509,0.2519,0.252,0.2546,0.2546,0.2527,0.2575,0.2562,0.2566,0.2563,0.2568,0.2572,0.2599,0.2513,0,0,0,0,0,0.2292,0.2327,0.2382,0.2413,0.2421,0.2457,0.247,0.2486,0.2505,0.2508,0.2528,0.2544,0.2565,0.2565,0.2587,0.2604,0.2625,0.2619,0.2623,0.2626,0.2653,0.2692,0.2702,0.26,0.26,0.26,0,0,0.2287,0.2326,0.2349,0.2406,0.2424,0.2456,0.246,0.2475,0.2507,0.2508,0.2544,0.2561,0.2576,0.2602,0.2613,0.2598,0.2664,0.263,0.2632,0.2658,0.2697,0.2707,0.2715,0.2603,0.2602,0.2602,0,0,0.2311,0.232,0.2371,0.2377,0.2415,0.244,0.2447,0.2491,0.2502,0.2544,0.2559,0.2586,0.2616,0.2635,0.2645,0.2685,0.2691,0.269,0.2717,0.2755,0.2763,0.2771,0.2797,0.2807,0.268,0.268,0.268,0,0.2324,0.2367,0.2384,0.2412,0.2416,0.2435,0.247,0.2487,0.254,0.2566,0.2552,0.264,0.2636,0.2686,0.2697,0.2692,0.2716,0.2691,0.2759,0.2767,0.2775,0.28,0.2811,0.2681,0.2681,0.2681,0.2681,0,0.2374,0.2393,0.2396,0.2454,0.2471,0.2472,0.2507,0.2534,0.2555,0.2594,0.2653,0.2667,0.2724,0.272,0.2716,0.2779,0.2778,0.2763,0.2742,0.2785,0.2809,0.282,0.2682,0.2681,0.2681,0.2681,0,0,0.2453,0.2448,0.2449,0.2449,0.247,0.2487,0.2532,0.2589,0.2619,0.2668,0.2726,0.2763,0.2788,0.2805,0.2809,0.2831,0.2885,0.2822,0.2824,0.284,0.2971,0.2897,0.2902,0.2883,0.2885,0.2887,0.2959,0,0.2495,0.252,0.2531,0.2548,0.2542,0.255,0.2591,0.2639,0.2672,0.2726,0.2759,0.2809,0.2812,0.2832,0.2866,0.2889,0.2919,0.2867,0.2936,0.2938,0.2861,0.2915,0.2709,0.2751,0.297,0.2972,0.2974,0,0.2548,0.2541,0.2563,0.2553,0.256,0.2596,0.2635,0.2676,0.2747,0.2773,0.2844,0.2873,0.2943,0.2916,0.301,0.298,0.2992,0.2997,0.2999,0.2943,0.2887,0.2749,0.2764,0.2993,0.2991,0.299,0.2989,0,0.2537,0.2561,0.2568,0.255,0.2568,0.2602,0.2635,0.2702,0.2743,0.2811,0.2859,0.2938,0.3007,0.3033,0.3069,0.3044,0.3152,0.3109,0.3061,0.3055,0.2903,0.2879,0.3179,0.3178,0.3178,0.3178,0.3178,0,0.2516,0.2521,0.2558,0.2524,0.2571,0.2592,0.2661,0.2694,0.2769,0.2815,0.2892,0.294,0.3047,0.3117,0.3104,0.3133,0.3191,0.3093,0.3079,0.2897,0.2873,0.3101,0.3092,0.3181,0.318,0.318,0.3179,0,0.2471,0.2488,0.2488,0.2514,0.2555,0.2574,0.2679,0.2698,0.2788,0.2852,0.2881,0.3003,0.3071,0.3152,0.3211,0.32,0.3195,0.3186,0.2965,0.2923,0.306,0.305,0.3135,0.3133,0.3132,0.313,0.3129,0,0.2436,0.2444,0.248,0.2502,0.2516,0.2583,0.2621,0.2699,0.2702,0.2854,0.2844,0.2997,0.3026,0.3123,0.3122,0.3122,0.3172,0.294,0.2848,0.3083,0.3061,0.3053,0.3045,0.2645,0.264,0.2636,0.2633,0,0.2394,0.2428,0.2425,0.2452,0.2488,0.2519,0.2559,0.2568,0.2639,0.2706,0.2738,0.2794,0.2929,0.2855,0.2929,0.2883,0.2916,0.2856,0.318,0.2683,0.2626,0.2603,0.261,0.2597,0.2601,0.2603,0.2605,0.2607,0.2394,0.2393,0.2406,0.2395,0.2441,0.2393,0.237,0.2393,0.2402,0.2424,0.2542,0.2567,0.2657,0.2634,0.256,0.2545,0.2726,0.262,0.2631,0.2646,0.2572,0.2514,0.2451,0.2454,0.2456,0.2458,0.246,0,0.2322,0.2339,0.2354,0.2302,0.2248,0.2307,0.2281,0.2213,0.215,0.2241,0.2273,0.2144,0.2139,0.2215,0.2146,0.2166,0.2129,0.2076,0.2012,0.2052,0.2086,0.198,0.1704,0.1701,0.1698,0.1696,0,0,0.2311,0.2255,0.2211,0.2087,0.2074,0.1964,0.1913,0.1868,0.1902,0.1852,0.1874,0.2052,0.2174,0.1904,0.1891,0.1786,0.1897,0.1722,0.2341,0.2309,0.2339,0.2428,0.2313,0,0,0,0,0]},{"header":{"parameterUnit":"m.s-1","parameterCategory":2,"la1":30.2991,"la2":30.254,"lo1":-89.0895,"lo2":-89.0444,"dy":0.0017,"dx":0.0017,"nx":28,"ny":28,"refTime":"2024-05-03T21:00:00:Z","depth":"2","parameterNumber":3,"parameterNumberName":"V-component_of_CURRENTS"},"data":[0,0,0,0,0,0,0,0,0,0,0,0,0,0,0,0,0,0,0,0,0,0,0,0,0,0,0,0,0,0,0,0,0,0,0,0,0,0,0,0,0,0,0,0,0,0,0,0,0,0,0,0,0,0,0,0,0,0,-0.0027,-0.0028,0,-0.0119,-0.012,-0.0121,-0.0184,-0.0184,-0.0185,-0.0185,-0.0263,-0.0265,-0.0267,0,0,0,0,0,0,0,0,0,0,0,0,0,0.0042,0.0042,-0.0027,-0.0028,-0.0029,-0.0119,-0.012,-0.0121,-0.0184,-0.0184,-0.0185,-0.0186,-0.0263,-0.0265,-0.0267,0,0,0,0,0,0,0,0,0,0,0,0,0,-0.0012,0.0041,-0.0026,-0.0071,-0.0076,-0.0118,-0.012,-0.0122,-0.0184,-0.0184,-0.0185,-0.0186,-0.0262,-0.0265,-0.0267,-0.0268,0,0,-0.0274,-0.0276,0,0,0,0,0,0,0,0,-0.0009,-0.0015,-0.0063,-0.0068,-0.0074,-0.0141,-0.0125,-0.017,-0.0184,-0.0143,-0.0185,-0.0186,-0.0221,-0.0226,-0.0242,-0.0272,-0.0275,-0.0275,-0.0276,-0.0277,-0.0278,0,0,0,0,0,0,0,-0.0005,-0.0012,-0.0063,-0.0065,-0.0071,-0.0105,-0.0113,-0.0134,-0.0176,-0.0146,-0.0151,-0.0161,-0.0223,-0.024,-0.0245,-0.0276,-0.0275,-0.0277,-0.0278,-0.0279,-0.0314,-0.0313,0,0,0,0,0,0,0.0009,-0.0008,-0.006,-0.0066,-0.0043,-0.0105,-0.0114,-0.0118,-0.0176,-0.0186,-0.0161,-0.0164,-0.0235,-0.0242,-0.0247,-0.0247,-0.0277,-0.0279,-0.0281,-0.0314,-0.0313,-0.0313,0,0,0,0,0,0,0.0011,0.0006,-0.0056,-0.0039,-0.005,-0.0105,-0.011,-0.012,-0.0129,-0.0188,-0.0197,-0.0159,-0.0236,-0.0244,-0.0257,-0.025,-0.0281,-0.0283,-0.0315,-0.0314,-0.0313,-0.0249,0,0,0,0,0,0,0.0014,0.0007,0.0012,-0.0038,-0.005,-0.0073,-0.0109,-0.0121,-0.0135,-0.014,-0.0189,-0.0198,-0.0237,-0.0253,-0.0259,-0.0254,-0.0285,-0.0316,-0.0314,-0.0313,-0.0252,-0.0246,-0.0241,0,0,0,0,0,0.0017,0.0021,0.0013,0.0007,-0.0042,-0.0073,-0.0082,-0.0124,-0.0134,-0.0135,-0.0164,-0.0196,-0.0251,-0.0254,-0.0261,-0.0258,-0.0316,-0.0315,-0.0313,-0.0254,-0.0247,-0.0241,0,0,0,0,0,0,0.0041,0.0014,0.0004,-0.0003,-0.0029,-0.0084,-0.0092,-0.011,-0.0135,-0.0135,-0.0184,-0.0195,-0.0207,-0.0235,-0.0237,-0.0264,-0.029,-0.029,-0.0242,-0.0236,-0.0231,-0.0215,-0.0287,0,0,0,0,0,0.0054,0.0058,0.0021,0.0016,0.0007,-0.0034,-0.0049,-0.0072,-0.0103,-0.0115,-0.015,-0.0183,-0.0208,-0.0222,-0.0252,-0.0259,-0.0291,-0.0263,-0.0258,-0.0253,-0.0246,-0.0285,-0.0282,-0.0309,-0.0309,-0.0309,0,0,0.006,0.0047,0.0046,0.0023,-0.0002,-0.0008,-0.0045,-0.0061,-0.0065,-0.0118,-0.0131,-0.0163,-0.0205,-0.0222,-0.0229,-0.0244,-0.0261,-0.0251,-0.0247,-0.0242,-0.0283,-0.0281,-0.0278,-0.0308,-0.0308,-0.0308,0,0,0.0075,0.0066,0.0075,0.0059,0.0036,0.0016,0.0021,-0.002,-0.0035,-0.0044,-0.0087,-0.0111,-0.0147,-0.0185,-0.0205,-0.0183,-0.023,-0.0192,-0.0155,-0.0192,-0.019,-0.0189,-0.0223,-0.0225,-0.0191,-0.0191,-0.0191,0,0.0089,0.0086,0.0071,0.0072,0.0066,0.0036,0.0044,0.0023,-0.0016,-0.002,-0.0038,-0.0091,-0.0132,-0.0153,-0.0153,-0.0172,-0.0197,-0.0175,-0.0185,-0.0185,-0.0184,-0.0219,-0.0223,-0.0187,-0.0188,-0.0188,-0.0188,0,0.0098,0.0102,0.0104,0.0105,0.0106,0.01,0.0081,0.0081,0.0069,0.0042,0.0026,-0.0029,-0.006,-0.0081,-0.0111,-0.0129,-0.0148,-0.0172,-0.02,-0.0178,-0.0216,-0.0221,-0.0183,-0.0184,-0.0185,-0.0186,0,0,0.0117,0.0115,0.0117,0.0132,0.0123,0.013,0.0139,0.0136,0.0148,0.0107,0.0109,0.0054,0.0025,0.0001,-0.0045,-0.0083,-0.0112,-0.0121,-0.0125,-0.0151,-0.0189,-0.0201,-0.0208,-0.0136,-0.0137,-0.0137,-0.0215,0,0.0129,0.0149,0.0147,0.0178,0.0189,0.0185,0.0209,0.0209,0.019,0.018,0.0125,0.0104,0.0055,0.0044,0.0,-0.0078,-0.0121,-0.0088,-0.0209,-0.0213,-0.0224,-0.0213,-0.0171,-0.0237,-0.022,-0.0221,-0.0222,0,0.0134,0.0152,0.0184,0.0234,0.0244,0.0267,0.031,0.0323,0.0303,0.0289,0.0253,0.0199,0.0146,0.0096,-0.0019,0.0008,-0.0082,-0.0152,-0.0157,-0.0192,-0.0233,-0.0258,-0.0247,-0.023,-0.0229,-0.0229,-0.0228,0,0.0155,0.0184,0.022,0.0225,0.0271,0.0307,0.0344,0.0355,0.0388,0.0347,0.0359,0.0275,0.026,0.0133,-0.0001,-0.0012,-0.0135,-0.0172,-0.027,-0.0273,-0.0274,-0.0275,-0.0265,-0.0265,-0.0265,-0.0265,-0.0264,0,0.016,0.0195,0.0235,0.025,0.0331,0.0354,0.043,0.0445,0.0471,0.051,0.0421,0.042,0.0272,0.0181,0.0026,-0.0121,-0.0113,-0.0259,-0.0292,-0.025,-0.0248,-0.0272,-0.0271,-0.0268,-0.0267,-0.0266,-0.0266,0,0.0176,0.0188,0.0235,0.0297,0.0338,0.0394,0.0511,0.0548,0.0576,0.062,0.0617,0.0551,0.0435,0.027,0.0075,-0.0054,-0.0226,-0.0289,-0.0224,-0.0248,-0.035,-0.0345,-0.0407,-0.0408,-0.0409,-0.041,-0.041,0,0.0185,0.0209,0.0282,0.0335,0.0368,0.0464,0.0534,0.0591,0.0617,0.069,0.0691,0.0634,0.0569,0.0298,0.0056,-0.0195,-0.0233,-0.0321,-0.0344,-0.0338,-0.0364,-0.0358,-0.0352,-0.0323,-0.0323,-0.0323,-0.0323,0,0.022,0.024,0.0288,0.0378,0.0449,0.0545,0.0631,0.068,0.0742,0.0788,0.0819,0.0795,0.0574,0.0343,0.0036,-0.0138,-0.0278,-0.0328,-0.0337,-0.0289,-0.0264,-0.0288,-0.0284,-0.0322,-0.0322,-0.0322,-0.0322,-0.0322,0.0267,0.0294,0.0351,0.044,0.0527,0.0618,0.0697,0.0759,0.0845,0.0933,0.0898,0.0895,0.066,0.0278,-0.0008,-0.0279,-0.0284,-0.0381,-0.0379,-0.0378,-0.0349,-0.0327,-0.0391,-0.0391,-0.0392,-0.0392,-0.0393,0,0.0316,0.0355,0.0427,0.0514,0.0602,0.0643,0.0763,0.0828,0.0917,0.0989,0.1032,0.0847,0.0601,0.0332,-0.0072,-0.0334,-0.0346,-0.0405,-0.0362,-0.0361,-0.036,-0.033,-0.0368,-0.0368,-0.0369,-0.037,0,0,0.0353,0.0411,0.0423,0.056,0.0639,0.0748,0.0821,0.0921,0.1,0.1072,0.1093,0.1065,0.0725,0.044,0.0092,-0.0136,-0.0189,-0.0177,-0.0168,-0.0076,-0.0072,-0.0317,-0.0265,0,0,0,0,0]}],[{"header":{"parameterUnit":"m.s-1","parameterCategory":2,"la1":30.2991,"la2":30.254,"lo1":-89.0895,"lo2":-89.0444,"dy":0.0017,"dx":0.0017,"nx":28,"ny":28,"refTime":"2024-05-03T21:00:00:Z","depth":"4","parameterNumber":2,"parameterNumberName":"U-component_of_CURRENTS"},"data":[0,0,0,0,0,0,0,0,0,0,0,0,0,0,0,0,0,0,0,0,0,0,0,0,0,0,0,0,0,0,0,0,0,0,0,0,0,0,0,0,0,0,0,0,0,0,0,0,0,0,0,0,0,0,0,0,0,0,0.1145,0.1146,0,0.1174,0.1174,0.1174,0.1211,0.1212,0.1213,0.1214,0.1281,0.1282,0.1282,0,0,0,0,0,0,0,0,0,0,0,0,0,0.1109,0.1109,0.1145,0.1146,0.1146,0.1174,0.1174,0.1174,0.1211,0.1212,0.1213,0.1215,0.128,0.1281,0.1282,0,0,0,0,0,0,0,0,0,0,0,0,0,0.1126,0.1109,0.1145,0.1171,0.1174,0.1174,0.1174,0.1174,0.1211,0.1212,0.1214,0.1215,0.128,0.1281,0.1283,0.1262,0,0,0.1287,0.1287,0,0,0,0,0,0,0,0,0.1125,0.1127,0.1166,0.1169,0.1173,0.1194,0.1186,0.1207,0.1211,0.1193,0.1214,0.1216,0.1257,0.126,0.1256,0.1265,0.1268,0.1287,0.1288,0.1288,0.1289,0,0,0,0,0,0,0,0.1124,0.1126,0.1153,0.1167,0.1171,0.1178,0.1181,0.119,0.1214,0.1194,0.1198,0.1207,0.1258,0.1255,0.1258,0.1269,0.1287,0.1288,0.1289,0.1289,0.1365,0.1367,0,0,0,0,0,0,0.1127,0.1125,0.1152,0.1154,0.1156,0.1177,0.1181,0.1182,0.1213,0.122,0.1206,0.1209,0.1252,0.1257,0.1261,0.1357,0.1288,0.1289,0.129,0.1364,0.1366,0.1367,0,0,0,0,0,0,0.1126,0.1129,0.1151,0.1144,0.1148,0.1177,0.1178,0.1182,0.1207,0.1222,0.1229,0.123,0.1253,0.1259,0.13,0.1356,0.129,0.1291,0.1363,0.1365,0.1366,0.1474,0,0,0,0,0,0,0.1125,0.1128,0.1141,0.1144,0.1148,0.1173,0.1177,0.1182,0.1211,0.1215,0.1244,0.125,0.1255,0.1299,0.1302,0.1357,0.1292,0.1361,0.1364,0.1366,0.1469,0.148,0.1489,0,0,0,0,0,0.1123,0.1138,0.1141,0.1145,0.1161,0.1175,0.1178,0.12,0.1211,0.1226,0.1251,0.1251,0.1316,0.13,0.1304,0.1361,0.136,0.1363,0.1366,0.1465,0.1478,0.1488,0,0,0,0,0,0,0.1126,0.1143,0.1147,0.1165,0.1179,0.1183,0.1209,0.1212,0.124,0.126,0.1263,0.1271,0.1332,0.1319,0.1302,0.1385,0.1339,0.1342,0.1413,0.1425,0.1434,0.1427,0.1293,0,0,0,0,0,0.1131,0.1152,0.1159,0.1177,0.119,0.12,0.1213,0.1228,0.1247,0.1262,0.1277,0.1302,0.1338,0.1361,0.1379,0.1419,0.1408,0.1455,0.1465,0.1474,0.1468,0.1497,0.151,0.1376,0.1376,0.1376,0,0,0.1136,0.1151,0.1162,0.1181,0.1198,0.1218,0.1213,0.1247,0.1276,0.1265,0.1317,0.1338,0.1355,0.1412,0.1437,0.1414,0.151,0.1477,0.1485,0.1474,0.1502,0.1515,0.1526,0.1378,0.1378,0.1377,0,0,0.1146,0.1173,0.1188,0.1208,0.1242,0.1255,0.1269,0.1287,0.1316,0.1357,0.137,0.1416,0.1452,0.1482,0.1502,0.1567,0.156,0.1582,0.1632,0.1662,0.1673,0.1683,0.1707,0.1718,0.1588,0.1588,0.1588,0,0.1145,0.1171,0.1195,0.1216,0.1246,0.1274,0.1298,0.1329,0.1358,0.1389,0.1392,0.1464,0.1486,0.156,0.1596,0.1593,0.1603,0.1594,0.1676,0.1686,0.1694,0.1716,0.1726,0.1594,0.1593,0.1593,0.1592,0,0.1159,0.1193,0.1213,0.1252,0.1282,0.132,0.1362,0.1406,0.1445,0.1465,0.1544,0.1569,0.1611,0.1638,0.1646,0.1725,0.1712,0.1689,0.1651,0.1714,0.1733,0.1742,0.1602,0.16,0.1598,0.1597,0,0,0.1126,0.1202,0.1213,0.1244,0.1313,0.1335,0.1413,0.1475,0.153,0.1572,0.1628,0.1706,0.1717,0.1737,0.1756,0.1788,0.1875,0.1775,0.1774,0.1806,0.1948,0.1837,0.1836,0.1876,0.1877,0.1879,0.1945,0,0.1131,0.1178,0.1221,0.1284,0.1319,0.1388,0.145,0.1518,0.1584,0.1645,0.1695,0.1757,0.1758,0.1798,0.1833,0.1864,0.1901,0.1859,0.1873,0.1873,0.1774,0.1843,0.1884,0.1952,0.1954,0.1955,0.1956,0,0.113,0.117,0.1226,0.1315,0.1337,0.1383,0.1504,0.1566,0.167,0.1718,0.1787,0.1819,0.1898,0.1874,0.1957,0.1936,0.1953,0.1963,0.1965,0.1823,0.1779,0.1868,0.1973,0.1971,0.197,0.1969,0.1968,0,0.1102,0.1177,0.123,0.1261,0.1359,0.1414,0.148,0.1592,0.1652,0.1775,0.1821,0.19,0.1949,0.1986,0.2025,0.2007,0.2089,0.206,0.1972,0.1964,0.1997,0.1985,0.2107,0.2107,0.2106,0.2106,0.2106,0,0.1092,0.1136,0.1225,0.1258,0.1325,0.1409,0.15,0.1583,0.169,0.1756,0.1857,0.1904,0.1981,0.2034,0.2052,0.2044,0.2117,0.1988,0.1976,0.2042,0.2035,0.2004,0.1992,0.2109,0.2108,0.2108,0.2107,0,0.1049,0.1113,0.1176,0.1282,0.1316,0.1371,0.149,0.1551,0.1676,0.1766,0.1808,0.1924,0.2003,0.2061,0.2125,0.2068,0.2078,0.2055,0.2137,0.2127,0.1927,0.1919,0.1959,0.1956,0.1953,0.195,0.1948,0,0.1027,0.1058,0.1169,0.1206,0.1258,0.1347,0.1403,0.153,0.1593,0.1761,0.1786,0.1906,0.1973,0.1974,0.2043,0.2071,0.2045,0.2032,0.1962,0.1928,0.1913,0.191,0.1906,0.1944,0.1943,0.1943,0.1942,0,0.0983,0.1035,0.1084,0.1156,0.1221,0.1279,0.1373,0.1396,0.1551,0.1663,0.1731,0.1779,0.1856,0.1902,0.1942,0.1953,0.203,0.2002,0.2007,0.1941,0.1911,0.1898,0.1897,0.1932,0.1933,0.1934,0.1935,0,0.0949,0.0965,0.1038,0.1092,0.1164,0.12,0.1255,0.1326,0.1396,0.1576,0.1589,0.1725,0.1833,0.1842,0.1878,0.1886,0.1852,0.178,0.1796,0.1807,0.1727,0.1664,0.1608,0,0,0,0,0,0.0904,0.0918,0.0964,0.1021,0.1086,0.1133,0.123,0.1291,0.1421,0.1431,0.1509,0.1581,0.1641,0.1706,0.1684,0.1811,0.1857,0.1777,0.1781,0.1878,0.1889,0.1807,0,0,0,0,0,0,0.0875,0.0917,0.0936,0.0952,0.0977,0.104,0.11,0.1188,0.1204,0.1339,0.1382,0.1487,0.157,0.1642,0.1655,0.1675,0.1645,0.186,0.1856,0.1871,0.1882,0.1891,0.1811,0,0,0,0,0]},{"header":{"parameterUnit":"m.s-1","parameterCategory":2,"la1":30.2991,"la2":30.254,"lo1":-89.0895,"lo2":-89.0444,"dy":0.0017,"dx":0.0017,"nx":28,"ny":28,"refTime":"2024-05-03T21:00:00:Z","depth":"4","parameterNumber":3,"parameterNumberName":"V-component_of_CURRENTS"},"data":[0,0,0,0,0,0,0,0,0,0,0,0,0,0,0,0,0,0,0,0,0,0,0,0,0,0,0,0,0,0,0,0,0,0,0,0,0,0,0,0,0,0,0,0,0,0,0,0,0,0,0,0,0,0,0,0,0,0,0.0044,0.0044,0,0.0012,0.0011,0.0011,-0.002,-0.0021,-0.0021,-0.0021,-0.0087,-0.0089,-0.009,0,0,0,0,0,0,0,0,0,0,0,0,0,0.0058,0.0058,0.0044,0.0044,0.0044,0.0012,0.0011,0.0011,-0.002,-0.0021,-0.0021,-0.0021,-0.0087,-0.0088,-0.009,0,0,0,0,0,0,0,0,0,0,0,0,0,0.0041,0.0058,0.0044,0.0025,0.0023,0.0012,0.0011,0.0011,-0.002,-0.0021,-0.0021,-0.0022,-0.0086,-0.0088,-0.009,-0.0094,0,0,-0.0097,-0.0098,0,0,0,0,0,0,0,0,0.0042,0.004,0.0028,0.0026,0.0024,-0.0,-0.0008,-0.0026,-0.002,-0.0004,-0.0021,-0.0022,-0.006,-0.0065,-0.007,-0.0097,-0.01,-0.0097,-0.0099,-0.01,-0.01,0,0,0,0,0,0,0,0.0043,0.0042,0.0031,0.0028,0.0025,0.001,0.0008,-0.0012,-0.003,-0.0006,-0.0008,-0.001,-0.0062,-0.0068,-0.0072,-0.0101,-0.0097,-0.0099,-0.0101,-0.0101,-0.0132,-0.0131,0,0,0,0,0,0,0.0051,0.0043,0.0032,0.003,0.0033,0.0011,0.0007,0.0008,-0.003,-0.0035,-0.001,-0.0012,-0.0064,-0.007,-0.0075,-0.0086,-0.01,-0.0102,-0.0103,-0.0132,-0.0131,-0.0131,0,0,0,0,0,0,0.0051,0.005,0.0033,0.0036,0.0033,0.0011,0.0011,0.0007,0.0001,-0.0032,-0.0039,-0.0012,-0.0065,-0.0072,-0.0089,-0.0089,-0.0103,-0.0105,-0.0133,-0.0132,-0.0131,-0.0106,0,0,0,0,0,0,0.0052,0.005,0.0054,0.0037,0.0033,0.0028,0.0012,0.0007,0.0001,-0.0002,-0.0036,-0.0042,-0.0066,-0.0085,-0.0091,-0.0092,-0.0106,-0.0133,-0.0132,-0.0131,-0.0107,-0.0104,-0.0101,0,0,0,0,0,0.0052,0.0054,0.0054,0.0053,0.0038,0.0029,0.0025,0.0007,0.0001,-0.0,-0.0021,-0.0041,-0.0083,-0.0087,-0.0093,-0.0095,-0.0134,-0.0133,-0.0131,-0.0108,-0.0105,-0.0102,0,0,0,0,0,0,0.0049,0.0051,0.005,0.0049,0.0043,0.0024,0.002,0.0012,-0.0004,-0.0008,-0.0038,-0.0046,-0.0062,-0.0077,-0.008,-0.0099,-0.0111,-0.0111,-0.0091,-0.0088,-0.0085,-0.0085,-0.0108,0,0,0,0,0,0.0055,0.0061,0.0056,0.0053,0.0055,0.0041,0.0035,0.0026,0.0009,0.0001,-0.0019,-0.0041,-0.0061,-0.0073,-0.0093,-0.0103,-0.0129,-0.0106,-0.0103,-0.0101,-0.0104,-0.0138,-0.0139,-0.0127,-0.0127,-0.0127,0,0,0.0048,0.0052,0.0052,0.0054,0.0048,0.0045,0.0036,0.0029,0.0024,-0.0003,-0.0016,-0.0034,-0.0062,-0.0076,-0.0084,-0.0089,-0.0118,-0.0099,-0.0097,-0.0102,-0.0137,-0.0139,-0.014,-0.0126,-0.0126,-0.0127,0,0,0.0038,0.0048,0.0051,0.0051,0.0051,0.0048,0.005,0.004,0.0034,0.0025,0.0002,-0.0013,-0.004,-0.006,-0.0074,-0.0066,-0.0103,-0.0069,-0.0056,-0.0089,-0.0091,-0.0093,-0.0128,-0.0134,-0.0066,-0.0066,-0.0066,0,0.0029,0.0039,0.0047,0.0049,0.0052,0.0052,0.0052,0.0047,0.0031,0.0029,0.0024,-0.0015,-0.0034,-0.0059,-0.0054,-0.0062,-0.0087,-0.0069,-0.0087,-0.0089,-0.0092,-0.0128,-0.0134,-0.0065,-0.0065,-0.0065,-0.0065,0,0.0024,0.0032,0.0033,0.0044,0.0045,0.0048,0.0048,0.0053,0.0053,0.0043,0.0028,0.0002,-0.0021,-0.0026,-0.0039,-0.0061,-0.0076,-0.0082,-0.0098,-0.0092,-0.013,-0.0137,-0.0063,-0.0063,-0.0064,-0.0064,0,0,0.0018,0.0029,0.0033,0.0043,0.0049,0.0053,0.0054,0.006,0.0066,0.0048,0.0043,0.0014,0.0003,-0.0013,-0.0031,-0.0055,-0.0089,-0.0071,-0.0073,-0.0111,-0.0168,-0.0157,-0.0164,-0.0101,-0.0102,-0.0102,-0.0189,0,0.0019,0.0031,0.0032,0.0044,0.0058,0.0062,0.0068,0.0069,0.0069,0.0066,0.0038,0.0025,0.0006,0.0001,-0.003,-0.0071,-0.0106,-0.0066,-0.0165,-0.0168,-0.0163,-0.017,-0.0105,-0.0195,-0.0196,-0.0197,-0.0198,0,0.0029,0.0042,0.0055,0.0072,0.0078,0.008,0.0107,0.0107,0.0098,0.0097,0.0071,0.0048,0.0011,-0.0002,-0.0089,-0.0063,-0.0116,-0.0152,-0.0156,-0.016,-0.0169,-0.0202,-0.0211,-0.021,-0.0209,-0.0208,-0.0208,0,0.0056,0.0063,0.0082,0.0087,0.0099,0.0109,0.0116,0.0118,0.0133,0.0113,0.012,0.006,0.0041,-0.0034,-0.0106,-0.0101,-0.0205,-0.0209,-0.0257,-0.0257,-0.0254,-0.0251,-0.0283,-0.0283,-0.0283,-0.0282,-0.0282,0,0.0077,0.0092,0.0099,0.0113,0.0146,0.0135,0.0163,0.0167,0.0167,0.0189,0.0136,0.0137,0.0034,-0.0032,-0.0109,-0.0202,-0.0215,-0.0261,-0.0279,-0.024,-0.0235,-0.0259,-0.0255,-0.0286,-0.0285,-0.0284,-0.0284,0,0.0105,0.0108,0.0133,0.0149,0.0162,0.0184,0.0206,0.0228,0.022,0.0245,0.0242,0.0187,0.0108,-0.0003,-0.0127,-0.0195,-0.029,-0.0325,-0.028,-0.0293,-0.0323,-0.0316,-0.0388,-0.0388,-0.0389,-0.0389,-0.0389,0,0.0117,0.0136,0.0169,0.0194,0.0203,0.0232,0.0264,0.0265,0.029,0.0286,0.0305,0.0231,0.0184,0.0017,-0.0112,-0.0281,-0.03,-0.0365,-0.0341,-0.0324,-0.0334,-0.0327,-0.032,-0.039,-0.039,-0.039,-0.039,0,0.0146,0.0158,0.0182,0.0237,0.0274,0.0315,0.0352,0.0376,0.0385,0.0378,0.0375,0.0285,0.0187,0.0042,-0.0097,-0.0215,-0.0328,-0.0368,-0.0368,-0.0346,-0.0326,-0.0335,-0.0328,-0.0391,-0.0391,-0.039,-0.039,0,0.0168,0.0191,0.0228,0.0275,0.0328,0.0383,0.0396,0.0426,0.0448,0.0445,0.0441,0.0332,0.026,0.0075,-0.0048,-0.0169,-0.0197,-0.0237,-0.0244,-0.0245,-0.0175,-0.0127,-0.0149,0,0,0,0,0,0.0188,0.0218,0.0263,0.0317,0.0369,0.0403,0.0455,0.0461,0.0474,0.0492,0.047,0.0388,0.021,0.0122,0.0007,-0.007,-0.0235,-0.0212,-0.0289,-0.0396,-0.0395,-0.0336,0,0,0,0,0,0,0.0203,0.0245,0.0267,0.0345,0.0388,0.0452,0.0488,0.0497,0.0503,0.0497,0.0409,0.0358,0.0183,0.0286,0.0007,-0.0034,-0.0099,-0.03,-0.0303,-0.0397,-0.0396,-0.0395,-0.0334,0,0,0,0,0]}]]